weather.gov     
National Weather Service

Terminal Aerodrome Forecast
NWS Homepage
This page is being discontinued on March 12, 2014.
The same data is available at this site. Please update your bookmarks.
Thank you, and we apologize for the inconvenience.
Please send an email to SR-SRH.Webmaster@noaa.gov with any concerns.


Current Version
Previous Version:    01  02  03  04  05  06  07  08  09  10  11  12  13  14  15  16  17  18  19  20  21  22  23  24  25  26  27  28  29  30  
   31  32  33  34  35  36  37  38  39  
[Printable]
759
FTUS41 KBGM 210800 AAA
TAFRME
TAF AMD
KRME 210813Z 2108/2206 10005KT P6SM -SHRA SCT035 OVC060
      TEMPO 2110/2114 5SM -SHRA SCT025 OVC035
     FM211400 14005KT 6SM -SHRA OVC025
      TEMPO 2114/2116 5SM -SHRA OVC015
     FM211600 08006KT P6SM -SHRA SCT025 OVC035
     FM220000 02007KT 5SM -SHRA SCT015 OVC025=


U.S. Dept. of Commerce
NOAA National Weather Service
1325 East West Highway
Silver Spring, MD 20910
E-mail: w-nws.webmaster@noaa.gov
Page last modified: May 16, 2007
NATIONAL WEATHER SERVICE: for Safety, for Work, for Fun - FOR LIFE